owner,sensor,date,latitude,longitude,vertical_datum,sea_water_practical_salinity,qcFlag 
WAVCIS,ioos:station:WAVCIS:CSI16:2,2009-11-01T00:00:00Z,29.4012,-89.0355,1.0,26.366,11111222 
WAVCIS,ioos:station:WAVCIS:CSI16:2,2009-11-01T00:15:00Z,29.4012,-89.0355,1.0,26.36,11111222 
WAVCIS,ioos:station:WAVCIS:CSI16:2,2009-11-01T00:30:00Z,29.4012,-89.0355,1.0,26.349,11111222 
WAVCIS,ioos:station:WAVCIS:CSI16:2,2009-11-01T00:45:00Z,29.4012,-89.0355,1.0,26.32,11111222 
WAVCIS,ioos:station:WAVCIS:CSI16:2,2009-11-01T01:00:00Z,29.4012,-89.0355,1.0,26.313,11111222 
WAVCIS,ioos:station:WAVCIS:CSI16:2,2009-11-01T01:15:00Z,29.4012,-89.0355,1.0,26.308,11111222 
WAVCIS,ioos:station:WAVCIS:CSI16:2,2009-11-01T01:30:00Z,29.4012,-89.0355,1.0,26.289,11111222 
WAVCIS,ioos:station:WAVCIS:CSI16:2,2009-11-01T01:45:00Z,29.4012,-89.0355,1.0,26.294,11111222 
WAVCIS,ioos:station:WAVCIS:CSI16:2,2009-11-01T02:00:00Z,29.4012,-89.0355,1.0,26.294,11111222 
WAVCIS,ioos:station:WAVCIS:CSI16:2,2009-11-01T02:15:00Z,29.4012,-89.0355,1.0,26.285,11111222 
WAVCIS,ioos:station:WAVCIS:CSI16:2,2009-11-01T02:30:00Z,29.4012,-89.0355,1.0,26.262,11111222 
WAVCIS,ioos:station:WAVCIS:CSI16:2,2009-11-01T02:45:00Z,29.4012,-89.0355,1.0,26.268,11111222 
WAVCIS,ioos:station:WAVCIS:CSI16:2,2009-11-01T03:00:00Z,29.4012,-89.0355,1.0,26.247,11111222 
WAVCIS,ioos:station:WAVCIS:CSI16:2,2009-11-01T03:15:00Z,29.4012,-89.0355,1.0,26.23,11111222 
WAVCIS,ioos:station:WAVCIS:CSI16:2,2009-11-01T03:30:00Z,29.4012,-89.0355,1.0,26.063,11111222 
WAVCIS,ioos:station:WAVCIS:CSI16:2,2009-11-01T03:45:00Z,29.4012,-89.0355,1.0,26.047,11111222 
WAVCIS,ioos:station:WAVCIS:CSI16:2,2009-11-01T04:00:00Z,29.4012,-89.0355,1.0,26.122,11111222 
WAVCIS,ioos:station:WAVCIS:CSI16:2,2009-11-01T04:15:00Z,29.4012,-89.0355,1.0,26.094,11111222 
WAVCIS,ioos:station:WAVCIS:CSI16:2,2009-11-01T04:30:00Z,29.4012,-89.0355,1.0,26.049,11111222 
WAVCIS,ioos:station:WAVCIS:CSI16:2,2009-11-01T04:45:00Z,29.4012,-89.0355,1.0,25.863,11111222 
WAVCIS,ioos:station:WAVCIS:CSI16:2,2009-11-01T05:00:00Z,29.4012,-89.0355,1.0,26.07,11111222 
WAVCIS,ioos:station:WAVCIS:CSI16:2,2009-11-01T05:15:00Z,29.4012,-89.0355,1.0,25.71,11111222 
WAVCIS,ioos:station:WAVCIS:CSI16:2,2009-11-01T05:30:00Z,29.4012,-89.0355,1.0,25.684,11111222 
WAVCIS,ioos:station:WAVCIS:CSI16:2,2009-11-01T05:45:00Z,29.4012,-89.0355,1.0,25.712,11111222 
WAVCIS,ioos:station:WAVCIS:CSI16:2,2009-11-01T06:00:00Z,29.4012,-89.0355,1.0,25.734,11111222 
WAVCIS,ioos:station:WAVCIS:CSI16:2,2009-11-01T06:15:00Z,29.4012,-89.0355,1.0,25.707,11111222 
WAVCIS,ioos:station:WAVCIS:CSI16:2,2009-11-01T06:30:00Z,29.4012,-89.0355,1.0,25.624,11111222 
WAVCIS,ioos:station:WAVCIS:CSI16:2,2009-11-01T06:45:00Z,29.4012,-89.0355,1.0,25.59,11111222 
WAVCIS,ioos:station:WAVCIS:CSI16:2,2009-11-01T07:00:00Z,29.4012,-89.0355,1.0,25.408,11111222 
WAVCIS,ioos:station:WAVCIS:CSI16:2,2009-11-01T07:15:00Z,29.4012,-89.0355,1.0,25.457,11111222 
WAVCIS,ioos:station:WAVCIS:CSI16:2,2009-11-01T07:30:00Z,29.4012,-89.0355,1.0,25.343,11111222 
WAVCIS,ioos:station:WAVCIS:CSI16:2,2009-11-01T07:45:00Z,29.4012,-89.0355,1.0,25.347,11111222 
WAVCIS,ioos:station:WAVCIS:CSI16:2,2009-11-01T08:00:00Z,29.4012,-89.0355,1.0,25.04,11111222 
WAVCIS,ioos:station:WAVCIS:CSI16:2,2009-11-01T08:15:00Z,29.4012,-89.0355,1.0,25.024,11111222 
WAVCIS,ioos:station:WAVCIS:CSI16:2,2009-11-01T08:30:00Z,29.4012,-89.0355,1.0,25.013,11111222 
WAVCIS,ioos:station:WAVCIS:CSI16:2,2009-11-01T08:45:00Z,29.4012,-89.0355,1.0,24.988,11111222 
WAVCIS,ioos:station:WAVCIS:CSI16:2,2009-11-01T09:00:00Z,29.4012,-89.0355,1.0,25.047,11111222 
WAVCIS,ioos:station:WAVCIS:CSI16:2,2009-11-01T09:15:00Z,29.4012,-89.0355,1.0,25.016,11111222 
WAVCIS,ioos:station:WAVCIS:CSI16:2,2009-11-01T09:30:00Z,29.4012,-89.0355,1.0,25.03,11111222 
WAVCIS,ioos:station:WAVCIS:CSI16:2,2009-11-01T09:45:00Z,29.4012,-89.0355,1.0,24.993,11111222 
WAVCIS,ioos:station:WAVCIS:CSI16:2,2009-11-01T10:00:00Z,29.4012,-89.0355,1.0,25.057,11111222 
WAVCIS,ioos:station:WAVCIS:CSI16:2,2009-11-01T10:15:00Z,29.4012,-89.0355,1.0,25.065,11111222 
WAVCIS,ioos:station:WAVCIS:CSI16:2,2009-11-01T10:30:00Z,29.4012,-89.0355,1.0,25.157,11111222 
WAVCIS,ioos:station:WAVCIS:CSI16:2,2009-11-01T10:45:00Z,29.4012,-89.0355,1.0,24.908,11111222 
WAVCIS,ioos:station:WAVCIS:CSI16:2,2009-11-01T11:00:00Z,29.4012,-89.0355,1.0,24.924,11111222 
WAVCIS,ioos:station:WAVCIS:CSI16:2,2009-11-01T11:15:00Z,29.4012,-89.0355,1.0,24.702,11111222 
WAVCIS,ioos:station:WAVCIS:CSI16:2,2009-11-01T11:30:00Z,29.4012,-89.0355,1.0,24.855,11111222 
WAVCIS,ioos:station:WAVCIS:CSI16:2,2009-11-01T11:45:00Z,29.4012,-89.0355,1.0,24.686,11111222 
WAVCIS,ioos:station:WAVCIS:CSI16:2,2009-11-01T12:00:00Z,29.4012,-89.0355,1.0,24.829,11111222 
WAVCIS,ioos:station:WAVCIS:CSI16:2,2009-11-01T12:15:00Z,29.4012,-89.0355,1.0,24.85,11111222 
WAVCIS,ioos:station:WAVCIS:CSI16:2,2009-11-01T12:30:00Z,29.4012,-89.0355,1.0,25.138,11111222 
WAVCIS,ioos:station:WAVCIS:CSI16:2,2009-11-01T12:45:00Z,29.4012,-89.0355,1.0,25.303,11111222 
WAVCIS,ioos:station:WAVCIS:CSI16:2,2009-11-01T13:00:00Z,29.4012,-89.0355,1.0,25.239,11111222 
WAVCIS,ioos:station:WAVCIS:CSI16:2,2009-11-01T13:15:00Z,29.4012,-89.0355,1.0,25.291,11111222 
WAVCIS,ioos:station:WAVCIS:CSI16:2,2009-11-01T13:30:00Z,29.4012,-89.0355,1.0,25.395,11111222 
WAVCIS,ioos:station:WAVCIS:CSI16:2,2009-11-01T13:45:00Z,29.4012,-89.0355,1.0,25.459,11111222 
WAVCIS,ioos:station:WAVCIS:CSI16:2,2009-11-01T14:00:00Z,29.4012,-89.0355,1.0,25.483,11111222 
WAVCIS,ioos:station:WAVCIS:CSI16:2,2009-11-01T14:15:00Z,29.4012,-89.0355,1.0,25.425,11111222 
WAVCIS,ioos:station:WAVCIS:CSI16:2,2009-11-01T14:30:00Z,29.4012,-89.0355,1.0,25.507,11111222 
WAVCIS,ioos:station:WAVCIS:CSI16:2,2009-11-01T14:45:00Z,29.4012,-89.0355,1.0,25.413,11111222 
WAVCIS,ioos:station:WAVCIS:CSI16:2,2009-11-01T15:00:00Z,29.4012,-89.0355,1.0,25.331,11111222 
WAVCIS,ioos:station:WAVCIS:CSI16:2,2009-11-01T15:15:00Z,29.4012,-89.0355,1.0,25.286,11111222 
WAVCIS,ioos:station:WAVCIS:CSI16:2,2009-11-01T15:30:00Z,29.4012,-89.0355,1.0,25.246,11111222 
WAVCIS,ioos:station:WAVCIS:CSI16:2,2009-11-01T15:45:00Z,29.4012,-89.0355,1.0,25.277,11111222 
WAVCIS,ioos:station:WAVCIS:CSI16:2,2009-11-01T16:00:00Z,29.4012,-89.0355,1.0,25.277,11111222 
WAVCIS,ioos:station:WAVCIS:CSI16:2,2009-11-01T16:15:00Z,29.4012,-89.0355,1.0,25.329,11111222 
WAVCIS,ioos:station:WAVCIS:CSI16:2,2009-11-01T16:30:00Z,29.4012,-89.0355,1.0,25.37,11111222 
WAVCIS,ioos:station:WAVCIS:CSI16:2,2009-11-01T16:45:00Z,29.4012,-89.0355,1.0,25.403,11111222 
WAVCIS,ioos:station:WAVCIS:CSI16:2,2009-11-01T17:00:00Z,29.4012,-89.0355,1.0,25.479,11111222 
WAVCIS,ioos:station:WAVCIS:CSI16:2,2009-11-01T17:15:00Z,29.4012,-89.0355,1.0,25.796,11111222 
WAVCIS,ioos:station:WAVCIS:CSI16:2,2009-11-01T17:30:00Z,29.4012,-89.0355,1.0,26.033,11111222 
WAVCIS,ioos:station:WAVCIS:CSI16:2,2009-11-01T17:45:00Z,29.4012,-89.0355,1.0,26.168,11111222 
WAVCIS,ioos:station:WAVCIS:CSI16:2,2009-11-01T18:00:00Z,29.4012,-89.0355,1.0,26.359,11111222 
WAVCIS,ioos:station:WAVCIS:CSI16:2,2009-11-01T18:15:00Z,29.4012,-89.0355,1.0,26.397,11111222 
WAVCIS,ioos:station:WAVCIS:CSI16:2,2009-11-01T18:30:00Z,29.4012,-89.0355,1.0,26.549,11111222 
WAVCIS,ioos:station:WAVCIS:CSI16:2,2009-11-01T18:45:00Z,29.4012,-89.0355,1.0,26.627,11111222 
WAVCIS,ioos:station:WAVCIS:CSI16:2,2009-11-01T19:00:00Z,29.4012,-89.0355,1.0,26.711,11111222 
WAVCIS,ioos:station:WAVCIS:CSI16:2,2009-11-01T19:15:00Z,29.4012,-89.0355,1.0,26.726,11111222 
WAVCIS,ioos:station:WAVCIS:CSI16:2,2009-11-01T19:30:00Z,29.4012,-89.0355,1.0,26.788,11111222 
WAVCIS,ioos:station:WAVCIS:CSI16:2,2009-11-01T19:45:00Z,29.4012,-89.0355,1.0,26.835,11111222 
WAVCIS,ioos:station:WAVCIS:CSI16:2,2009-11-01T20:00:00Z,29.4012,-89.0355,1.0,26.847,11111222 
WAVCIS,ioos:station:WAVCIS:CSI16:2,2009-11-01T20:15:00Z,29.4012,-89.0355,1.0,26.975,11111222 
WAVCIS,ioos:station:WAVCIS:CSI16:2,2009-11-01T20:30:00Z,29.4012,-89.0355,1.0,27.041,11111222 
WAVCIS,ioos:station:WAVCIS:CSI16:2,2009-11-01T20:45:00Z,29.4012,-89.0355,1.0,27.037,11111222 
WAVCIS,ioos:station:WAVCIS:CSI16:2,2009-11-01T21:00:00Z,29.4012,-89.0355,1.0,27.217,11111222 
WAVCIS,ioos:station:WAVCIS:CSI16:2,2009-11-01T21:15:00Z,29.4012,-89.0355,1.0,27.313,11111222 
WAVCIS,ioos:station:WAVCIS:CSI16:2,2009-11-01T21:30:00Z,29.4012,-89.0355,1.0,27.391,11111222 
WAVCIS,ioos:station:WAVCIS:CSI16:2,2009-11-01T21:45:00Z,29.4012,-89.0355,1.0,27.396,11111222 
WAVCIS,ioos:station:WAVCIS:CSI16:2,2009-11-01T22:00:00Z,29.4012,-89.0355,1.0,27.428,11111222 
WAVCIS,ioos:station:WAVCIS:CSI16:2,2009-11-01T22:15:00Z,29.4012,-89.0355,1.0,27.46,11111222 
WAVCIS,ioos:station:WAVCIS:CSI16:2,2009-11-01T22:30:00Z,29.4012,-89.0355,1.0,27.515,11111222 
WAVCIS,ioos:station:WAVCIS:CSI16:2,2009-11-01T22:45:00Z,29.4012,-89.0355,1.0,27.547,11111222 
WAVCIS,ioos:station:WAVCIS:CSI16:2,2009-11-01T23:00:00Z,29.4012,-89.0355,1.0,27.562,11111222 
WAVCIS,ioos:station:WAVCIS:CSI16:2,2009-11-01T23:15:00Z,29.4012,-89.0355,1.0,27.573,11111222 
WAVCIS,ioos:station:WAVCIS:CSI16:2,2009-11-01T23:30:00Z,29.4012,-89.0355,1.0,27.585,11111222 
WAVCIS,ioos:station:WAVCIS:CSI16:2,2009-11-01T23:45:00Z,29.4012,-89.0355,1.0,27.605,11111222 
WAVCIS,ioos:station:WAVCIS:CSI16:2,2009-11-02T00:00:00Z,29.4012,-89.0355,1.0,27.657,11111222 
WAVCIS,ioos:station:WAVCIS:CSI16:2,2009-11-02T00:15:00Z,29.4012,-89.0355,1.0,27.759,11111222 
WAVCIS,ioos:station:WAVCIS:CSI16:2,2009-11-02T00:30:00Z,29.4012,-89.0355,1.0,27.686,11111222 
WAVCIS,ioos:station:WAVCIS:CSI16:2,2009-11-02T00:45:00Z,29.4012,-89.0355,1.0,27.93,11111222 
WAVCIS,ioos:station:WAVCIS:CSI16:2,2009-11-02T01:00:00Z,29.4012,-89.0355,1.0,28.076,11111222 
WAVCIS,ioos:station:WAVCIS:CSI16:2,2009-11-02T01:15:00Z,29.4012,-89.0355,1.0,28.151,11111222 
WAVCIS,ioos:station:WAVCIS:CSI16:2,2009-11-02T01:30:00Z,29.4012,-89.0355,1.0,28.176,11111222 
WAVCIS,ioos:station:WAVCIS:CSI16:2,2009-11-02T01:45:00Z,29.4012,-89.0355,1.0,28.212,11111222 
WAVCIS,ioos:station:WAVCIS:CSI16:2,2009-11-02T02:00:00Z,29.4012,-89.0355,1.0,28.236,11111222 
WAVCIS,ioos:station:WAVCIS:CSI16:2,2009-11-02T02:15:00Z,29.4012,-89.0355,1.0,28.251,11111222 
WAVCIS,ioos:station:WAVCIS:CSI16:2,2009-11-02T02:30:00Z,29.4012,-89.0355,1.0,28.27,11111222 
WAVCIS,ioos:station:WAVCIS:CSI16:2,2009-11-02T02:45:00Z,29.4012,-89.0355,1.0,28.296,11111222 
WAVCIS,ioos:station:WAVCIS:CSI16:2,2009-11-02T03:00:00Z,29.4012,-89.0355,1.0,28.306,11111222 
WAVCIS,ioos:station:WAVCIS:CSI16:2,2009-11-02T03:15:00Z,29.4012,-89.0355,1.0,28.311,11111222 
WAVCIS,ioos:station:WAVCIS:CSI16:2,2009-11-02T03:30:00Z,29.4012,-89.0355,1.0,28.313,11111222 
WAVCIS,ioos:station:WAVCIS:CSI16:2,2009-11-02T03:45:00Z,29.4012,-89.0355,1.0,28.317,11111222 
WAVCIS,ioos:station:WAVCIS:CSI16:2,2009-11-02T04:00:00Z,29.4012,-89.0355,1.0,28.316,11111222 
WAVCIS,ioos:station:WAVCIS:CSI16:2,2009-11-02T04:15:00Z,29.4012,-89.0355,1.0,28.317,11111222 
WAVCIS,ioos:station:WAVCIS:CSI16:2,2009-11-02T04:30:00Z,29.4012,-89.0355,1.0,28.318,11111222 
WAVCIS,ioos:station:WAVCIS:CSI16:2,2009-11-02T04:45:00Z,29.4012,-89.0355,1.0,28.328,11111222 
WAVCIS,ioos:station:WAVCIS:CSI16:2,2009-11-02T05:00:00Z,29.4012,-89.0355,1.0,28.332,11111222 
WAVCIS,ioos:station:WAVCIS:CSI16:2,2009-11-02T05:15:00Z,29.4012,-89.0355,1.0,28.332,11111222 
WAVCIS,ioos:station:WAVCIS:CSI16:2,2009-11-02T05:30:00Z,29.4012,-89.0355,1.0,28.326,11111222 
WAVCIS,ioos:station:WAVCIS:CSI16:2,2009-11-02T05:45:00Z,29.4012,-89.0355,1.0,28.249,11111222 
WAVCIS,ioos:station:WAVCIS:CSI16:2,2009-11-02T06:00:00Z,29.4012,-89.0355,1.0,27.881,11111222 
WAVCIS,ioos:station:WAVCIS:CSI16:2,2009-11-02T06:15:00Z,29.4012,-89.0355,1.0,27.862,11111222 
WAVCIS,ioos:station:WAVCIS:CSI16:2,2009-11-02T06:30:00Z,29.4012,-89.0355,1.0,27.865,11111222 
WAVCIS,ioos:station:WAVCIS:CSI16:2,2009-11-02T06:45:00Z,29.4012,-89.0355,1.0,27.645,11111222 
WAVCIS,ioos:station:WAVCIS:CSI16:2,2009-11-02T07:00:00Z,29.4012,-89.0355,1.0,27.518,11111222 
WAVCIS,ioos:station:WAVCIS:CSI16:2,2009-11-02T07:15:00Z,29.4012,-89.0355,1.0,27.417,11111222 
WAVCIS,ioos:station:WAVCIS:CSI16:2,2009-11-02T07:30:00Z,29.4012,-89.0355,1.0,27.197,11111222 
WAVCIS,ioos:station:WAVCIS:CSI16:2,2009-11-02T07:45:00Z,29.4012,-89.0355,1.0,27.31,11111222 
WAVCIS,ioos:station:WAVCIS:CSI16:2,2009-11-02T08:00:00Z,29.4012,-89.0355,1.0,27.256,11111222 
WAVCIS,ioos:station:WAVCIS:CSI16:2,2009-11-02T08:15:00Z,29.4012,-89.0355,1.0,27.128,11111222 
WAVCIS,ioos:station:WAVCIS:CSI16:2,2009-11-02T08:30:00Z,29.4012,-89.0355,1.0,26.762,11111222 
WAVCIS,ioos:station:WAVCIS:CSI16:2,2009-11-02T08:45:00Z,29.4012,-89.0355,1.0,26.596,11111222 
WAVCIS,ioos:station:WAVCIS:CSI16:2,2009-11-02T09:00:00Z,29.4012,-89.0355,1.0,26.622,11111222 
WAVCIS,ioos:station:WAVCIS:CSI16:2,2009-11-02T09:15:00Z,29.4012,-89.0355,1.0,26.517,11111222 
WAVCIS,ioos:station:WAVCIS:CSI16:2,2009-11-02T09:30:00Z,29.4012,-89.0355,1.0,26.59,11111222 
WAVCIS,ioos:station:WAVCIS:CSI16:2,2009-11-02T09:45:00Z,29.4012,-89.0355,1.0,26.673,11111222 
WAVCIS,ioos:station:WAVCIS:CSI16:2,2009-11-02T10:00:00Z,29.4012,-89.0355,1.0,26.522,11111222 
WAVCIS,ioos:station:WAVCIS:CSI16:2,2009-11-02T10:15:00Z,29.4012,-89.0355,1.0,26.075,11111222 
WAVCIS,ioos:station:WAVCIS:CSI16:2,2009-11-02T10:30:00Z,29.4012,-89.0355,1.0,26.02,11111222 
WAVCIS,ioos:station:WAVCIS:CSI16:2,2009-11-02T10:45:00Z,29.4012,-89.0355,1.0,25.682,11111222 
WAVCIS,ioos:station:WAVCIS:CSI16:2,2009-11-02T11:00:00Z,29.4012,-89.0355,1.0,25.546,11111222 
WAVCIS,ioos:station:WAVCIS:CSI16:2,2009-11-02T11:15:00Z,29.4012,-89.0355,1.0,24.609,11111222 
WAVCIS,ioos:station:WAVCIS:CSI16:2,2009-11-02T11:30:00Z,29.4012,-89.0355,1.0,24.057,11111222 
WAVCIS,ioos:station:WAVCIS:CSI16:2,2009-11-02T11:45:00Z,29.4012,-89.0355,1.0,24.16,11111222 
WAVCIS,ioos:station:WAVCIS:CSI16:2,2009-11-02T12:00:00Z,29.4012,-89.0355,1.0,23.851,11111222 
WAVCIS,ioos:station:WAVCIS:CSI16:2,2009-11-02T12:15:00Z,29.4012,-89.0355,1.0,24.089,11111222 
WAVCIS,ioos:station:WAVCIS:CSI16:2,2009-11-02T12:30:00Z,29.4012,-89.0355,1.0,24.03,11111222 
WAVCIS,ioos:station:WAVCIS:CSI16:2,2009-11-02T12:45:00Z,29.4012,-89.0355,1.0,24.087,11111222 
WAVCIS,ioos:station:WAVCIS:CSI16:2,2009-11-02T13:00:00Z,29.4012,-89.0355,1.0,24.617,11111222 
WAVCIS,ioos:station:WAVCIS:CSI16:2,2009-11-02T13:15:00Z,29.4012,-89.0355,1.0,25.427,11111222 
WAVCIS,ioos:station:WAVCIS:CSI16:2,2009-11-02T13:30:00Z,29.4012,-89.0355,1.0,26.055,11111222 
WAVCIS,ioos:station:WAVCIS:CSI16:2,2009-11-02T13:45:00Z,29.4012,-89.0355,1.0,26.027,11111222 
WAVCIS,ioos:station:WAVCIS:CSI16:2,2009-11-02T14:00:00Z,29.4012,-89.0355,1.0,26.325,11111222 
WAVCIS,ioos:station:WAVCIS:CSI16:2,2009-11-02T14:15:00Z,29.4012,-89.0355,1.0,26.38,11111222 
WAVCIS,ioos:station:WAVCIS:CSI16:2,2009-11-02T14:30:00Z,29.4012,-89.0355,1.0,26.43,11111222 
WAVCIS,ioos:station:WAVCIS:CSI16:2,2009-11-02T14:45:00Z,29.4012,-89.0355,1.0,26.299,11111222 
WAVCIS,ioos:station:WAVCIS:CSI16:2,2009-11-02T15:00:00Z,29.4012,-89.0355,1.0,26.439,11111222 
WAVCIS,ioos:station:WAVCIS:CSI16:2,2009-11-02T15:15:00Z,29.4012,-89.0355,1.0,26.544,11111222 
WAVCIS,ioos:station:WAVCIS:CSI16:2,2009-11-02T15:30:00Z,29.4012,-89.0355,1.0,26.552,11111222 
WAVCIS,ioos:station:WAVCIS:CSI16:2,2009-11-02T15:45:00Z,29.4012,-89.0355,1.0,26.781,11111222 
WAVCIS,ioos:station:WAVCIS:CSI16:2,2009-11-02T16:00:00Z,29.4012,-89.0355,1.0,26.803,11111222 
WAVCIS,ioos:station:WAVCIS:CSI16:2,2009-11-02T16:15:00Z,29.4012,-89.0355,1.0,26.656,11111222 
WAVCIS,ioos:station:WAVCIS:CSI16:2,2009-11-02T16:30:00Z,29.4012,-89.0355,1.0,26.751,11111222 
WAVCIS,ioos:station:WAVCIS:CSI16:2,2009-11-02T16:45:00Z,29.4012,-89.0355,1.0,26.913,11111222 
WAVCIS,ioos:station:WAVCIS:CSI16:2,2009-11-02T17:00:00Z,29.4012,-89.0355,1.0,26.81,11111222 
WAVCIS,ioos:station:WAVCIS:CSI16:2,2009-11-02T17:15:00Z,29.4012,-89.0355,1.0,27.049,11111222 
WAVCIS,ioos:station:WAVCIS:CSI16:2,2009-11-02T17:30:00Z,29.4012,-89.0355,1.0,27.475,11111222 
WAVCIS,ioos:station:WAVCIS:CSI16:2,2009-11-02T17:45:00Z,29.4012,-89.0355,1.0,27.49,11111222 
WAVCIS,ioos:station:WAVCIS:CSI16:2,2009-11-02T18:00:00Z,29.4012,-89.0355,1.0,27.58,11111222 
WAVCIS,ioos:station:WAVCIS:CSI16:2,2009-11-02T18:15:00Z,29.4012,-89.0355,1.0,27.377,11111222 
WAVCIS,ioos:station:WAVCIS:CSI16:2,2009-11-02T18:30:00Z,29.4012,-89.0355,1.0,27.476,11111222 
WAVCIS,ioos:station:WAVCIS:CSI16:2,2009-11-02T18:45:00Z,29.4012,-89.0355,1.0,27.498,11111222 
WAVCIS,ioos:station:WAVCIS:CSI16:2,2009-11-02T19:00:00Z,29.4012,-89.0355,1.0,27.521,11111222 
WAVCIS,ioos:station:WAVCIS:CSI16:2,2009-11-02T19:15:00Z,29.4012,-89.0355,1.0,27.61,11111222 
WAVCIS,ioos:station:WAVCIS:CSI16:2,2009-11-02T19:30:00Z,29.4012,-89.0355,1.0,27.73,11111222 
WAVCIS,ioos:station:WAVCIS:CSI16:2,2009-11-02T19:45:00Z,29.4012,-89.0355,1.0,27.764,11111222 
WAVCIS,ioos:station:WAVCIS:CSI16:2,2009-11-02T20:00:00Z,29.4012,-89.0355,1.0,27.681,11111222 
WAVCIS,ioos:station:WAVCIS:CSI16:2,2009-11-02T20:15:00Z,29.4012,-89.0355,1.0,27.71,11111222 
WAVCIS,ioos:station:WAVCIS:CSI16:2,2009-11-02T20:30:00Z,29.4012,-89.0355,1.0,27.633,11111222 
WAVCIS,ioos:station:WAVCIS:CSI16:2,2009-11-02T20:45:00Z,29.4012,-89.0355,1.0,27.658,11111222 
WAVCIS,ioos:station:WAVCIS:CSI16:2,2009-11-02T21:00:00Z,29.4012,-89.0355,1.0,27.697,11111222 
WAVCIS,ioos:station:WAVCIS:CSI16:2,2009-11-02T21:15:00Z,29.4012,-89.0355,1.0,27.779,11111222 
WAVCIS,ioos:station:WAVCIS:CSI16:2,2009-11-02T21:30:00Z,29.4012,-89.0355,1.0,27.831,11111222 
WAVCIS,ioos:station:WAVCIS:CSI16:2,2009-11-02T21:45:00Z,29.4012,-89.0355,1.0,28.042,11111222 
WAVCIS,ioos:station:WAVCIS:CSI16:2,2009-11-02T22:00:00Z,29.4012,-89.0355,1.0,28.079,11111222 
WAVCIS,ioos:station:WAVCIS:CSI16:2,2009-11-02T22:15:00Z,29.4012,-89.0355,1.0,28.12,11111222 
WAVCIS,ioos:station:WAVCIS:CSI16:2,2009-11-02T22:30:00Z,29.4012,-89.0355,1.0,28.24,11111222 
WAVCIS,ioos:station:WAVCIS:CSI16:2,2009-11-02T22:45:00Z,29.4012,-89.0355,1.0,28.028,11111222 
WAVCIS,ioos:station:WAVCIS:CSI16:2,2009-11-02T23:00:00Z,29.4012,-89.0355,1.0,28.156,11111222 
WAVCIS,ioos:station:WAVCIS:CSI16:2,2009-11-02T23:15:00Z,29.4012,-89.0355,1.0,28.197,11111222 
WAVCIS,ioos:station:WAVCIS:CSI16:2,2009-11-02T23:30:00Z,29.4012,-89.0355,1.0,28.221,11111222 
WAVCIS,ioos:station:WAVCIS:CSI16:2,2009-11-02T23:45:00Z,29.4012,-89.0355,1.0,28.231,11111222 
WAVCIS,ioos:station:WAVCIS:CSI16:2,2009-11-03T00:00:00Z,29.4012,-89.0355,1.0,28.221,11111222 
WAVCIS,ioos:station:WAVCIS:CSI16:2,2009-11-03T00:15:00Z,29.4012,-89.0355,1.0,28.229,11111222 
WAVCIS,ioos:station:WAVCIS:CSI16:2,2009-11-03T00:30:00Z,29.4012,-89.0355,1.0,28.248,11111222 
WAVCIS,ioos:station:WAVCIS:CSI16:2,2009-11-03T00:45:00Z,29.4012,-89.0355,1.0,28.277,11111222 
WAVCIS,ioos:station:WAVCIS:CSI16:2,2009-11-03T01:00:00Z,29.4012,-89.0355,1.0,28.293,11111222 
WAVCIS,ioos:station:WAVCIS:CSI16:2,2009-11-03T01:15:00Z,29.4012,-89.0355,1.0,28.307,11111222 
WAVCIS,ioos:station:WAVCIS:CSI16:2,2009-11-03T01:30:00Z,29.4012,-89.0355,1.0,28.32,11111222 
WAVCIS,ioos:station:WAVCIS:CSI16:2,2009-11-03T01:45:00Z,29.4012,-89.0355,1.0,28.331,11111222 
WAVCIS,ioos:station:WAVCIS:CSI16:2,2009-11-03T02:00:00Z,29.4012,-89.0355,1.0,28.364,11111222 
WAVCIS,ioos:station:WAVCIS:CSI16:2,2009-11-03T02:15:00Z,29.4012,-89.0355,1.0,28.397,11111222 
WAVCIS,ioos:station:WAVCIS:CSI16:2,2009-11-03T02:30:00Z,29.4012,-89.0355,1.0,28.399,11111222 
WAVCIS,ioos:station:WAVCIS:CSI16:2,2009-11-03T02:45:00Z,29.4012,-89.0355,1.0,28.395,11111222 
WAVCIS,ioos:station:WAVCIS:CSI16:2,2009-11-03T03:00:00Z,29.4012,-89.0355,1.0,28.427,11111222 
WAVCIS,ioos:station:WAVCIS:CSI16:2,2009-11-03T03:15:00Z,29.4012,-89.0355,1.0,28.456,11111222 
WAVCIS,ioos:station:WAVCIS:CSI16:2,2009-11-03T03:30:00Z,29.4012,-89.0355,1.0,28.464,11111222 
WAVCIS,ioos:station:WAVCIS:CSI16:2,2009-11-03T03:45:00Z,29.4012,-89.0355,1.0,28.464,11111222 
WAVCIS,ioos:station:WAVCIS:CSI16:2,2009-11-03T04:00:00Z,29.4012,-89.0355,1.0,28.47,11111222 
WAVCIS,ioos:station:WAVCIS:CSI16:2,2009-11-03T04:15:00Z,29.4012,-89.0355,1.0,28.475,11111222 
WAVCIS,ioos:station:WAVCIS:CSI16:2,2009-11-03T04:30:00Z,29.4012,-89.0355,1.0,28.489,11111222 
WAVCIS,ioos:station:WAVCIS:CSI16:2,2009-11-03T04:45:00Z,29.4012,-89.0355,1.0,28.473,11111222 
WAVCIS,ioos:station:WAVCIS:CSI16:2,2009-11-03T05:00:00Z,29.4012,-89.0355,1.0,28.479,11111222 
WAVCIS,ioos:station:WAVCIS:CSI16:2,2009-11-03T05:15:00Z,29.4012,-89.0355,1.0,28.457,11111222 
WAVCIS,ioos:station:WAVCIS:CSI16:2,2009-11-03T05:30:00Z,29.4012,-89.0355,1.0,28.452,11111222 
WAVCIS,ioos:station:WAVCIS:CSI16:2,2009-11-03T05:45:00Z,29.4012,-89.0355,1.0,28.431,11111222 
WAVCIS,ioos:station:WAVCIS:CSI16:2,2009-11-03T06:00:00Z,29.4012,-89.0355,1.0,28.41,11111222 
WAVCIS,ioos:station:WAVCIS:CSI16:2,2009-11-03T06:15:00Z,29.4012,-89.0355,1.0,28.384,11111222 
WAVCIS,ioos:station:WAVCIS:CSI16:2,2009-11-03T06:30:00Z,29.4012,-89.0355,1.0,28.349,11111222 
WAVCIS,ioos:station:WAVCIS:CSI16:2,2009-11-03T06:45:00Z,29.4012,-89.0355,1.0,28.318,11111222 
WAVCIS,ioos:station:WAVCIS:CSI16:2,2009-11-03T07:00:00Z,29.4012,-89.0355,1.0,27.77,11111222 
WAVCIS,ioos:station:WAVCIS:CSI16:2,2009-11-03T07:15:00Z,29.4012,-89.0355,1.0,27.805,11111222 
WAVCIS,ioos:station:WAVCIS:CSI16:2,2009-11-03T07:30:00Z,29.4012,-89.0355,1.0,27.844,11111222 
WAVCIS,ioos:station:WAVCIS:CSI16:2,2009-11-03T07:45:00Z,29.4012,-89.0355,1.0,27.777,11111222 
WAVCIS,ioos:station:WAVCIS:CSI16:2,2009-11-03T08:00:00Z,29.4012,-89.0355,1.0,27.563,11111222 
WAVCIS,ioos:station:WAVCIS:CSI16:2,2009-11-03T08:15:00Z,29.4012,-89.0355,1.0,27.395,11111222 
WAVCIS,ioos:station:WAVCIS:CSI16:2,2009-11-03T08:30:00Z,29.4012,-89.0355,1.0,27.251,11111222 
WAVCIS,ioos:station:WAVCIS:CSI16:2,2009-11-03T08:45:00Z,29.4012,-89.0355,1.0,27.169,11111222 
WAVCIS,ioos:station:WAVCIS:CSI16:2,2009-11-03T09:00:00Z,29.4012,-89.0355,1.0,27.036,11111222 
WAVCIS,ioos:station:WAVCIS:CSI16:2,2009-11-03T09:15:00Z,29.4012,-89.0355,1.0,26.945,11111222 
WAVCIS,ioos:station:WAVCIS:CSI16:2,2009-11-03T09:30:00Z,29.4012,-89.0355,1.0,26.922,11111222 
WAVCIS,ioos:station:WAVCIS:CSI16:2,2009-11-03T09:45:00Z,29.4012,-89.0355,1.0,26.77,11111222 
WAVCIS,ioos:station:WAVCIS:CSI16:2,2009-11-03T10:00:00Z,29.4012,-89.0355,1.0,26.03,11111222 
WAVCIS,ioos:station:WAVCIS:CSI16:2,2009-11-03T10:15:00Z,29.4012,-89.0355,1.0,25.108,11111222 
WAVCIS,ioos:station:WAVCIS:CSI16:2,2009-11-03T10:30:00Z,29.4012,-89.0355,1.0,24.898,11111222 
WAVCIS,ioos:station:WAVCIS:CSI16:2,2009-11-03T10:45:00Z,29.4012,-89.0355,1.0,24.901,11111222 
WAVCIS,ioos:station:WAVCIS:CSI16:2,2009-11-03T11:00:00Z,29.4012,-89.0355,1.0,24.907,11111222 
WAVCIS,ioos:station:WAVCIS:CSI16:2,2009-11-03T11:15:00Z,29.4012,-89.0355,1.0,25.697,11111222 
WAVCIS,ioos:station:WAVCIS:CSI16:2,2009-11-03T11:30:00Z,29.4012,-89.0355,1.0,26.066,11111222 
WAVCIS,ioos:station:WAVCIS:CSI16:2,2009-11-03T11:45:00Z,29.4012,-89.0355,1.0,26.278,11111222 
WAVCIS,ioos:station:WAVCIS:CSI16:2,2009-11-03T12:00:00Z,29.4012,-89.0355,1.0,25.896,11111222 
WAVCIS,ioos:station:WAVCIS:CSI16:2,2009-11-03T12:15:00Z,29.4012,-89.0355,1.0,25.703,11111222 
WAVCIS,ioos:station:WAVCIS:CSI16:2,2009-11-03T12:30:00Z,29.4012,-89.0355,1.0,25.84,11111222 
WAVCIS,ioos:station:WAVCIS:CSI16:2,2009-11-03T12:45:00Z,29.4012,-89.0355,1.0,26.605,11111222 
WAVCIS,ioos:station:WAVCIS:CSI16:2,2009-11-03T13:00:00Z,29.4012,-89.0355,1.0,26.019,11111222 
WAVCIS,ioos:station:WAVCIS:CSI16:2,2009-11-03T13:15:00Z,29.4012,-89.0355,1.0,26.588,11111222 
WAVCIS,ioos:station:WAVCIS:CSI16:2,2009-11-03T13:30:00Z,29.4012,-89.0355,1.0,27.171,11111222 
WAVCIS,ioos:station:WAVCIS:CSI16:2,2009-11-03T13:45:00Z,29.4012,-89.0355,1.0,27.366,11111222 
WAVCIS,ioos:station:WAVCIS:CSI16:2,2009-11-03T14:00:00Z,29.4012,-89.0355,1.0,27.534,11111222 
WAVCIS,ioos:station:WAVCIS:CSI16:2,2009-11-03T14:15:00Z,29.4012,-89.0355,1.0,27.575,11111222 
WAVCIS,ioos:station:WAVCIS:CSI16:2,2009-11-03T14:30:00Z,29.4012,-89.0355,1.0,27.583,11111222 
WAVCIS,ioos:station:WAVCIS:CSI16:2,2009-11-03T14:45:00Z,29.4012,-89.0355,1.0,27.644,11111222 
WAVCIS,ioos:station:WAVCIS:CSI16:2,2009-11-03T15:00:00Z,29.4012,-89.0355,1.0,27.7,11111222 
WAVCIS,ioos:station:WAVCIS:CSI16:2,2009-11-03T15:15:00Z,29.4012,-89.0355,1.0,27.806,11111222 